Weather History for Marion, VA

Change the Weather History Date:

Sunday, February 10, 2013

  Actual Average (KGEV) Record (KGEV)
Temperature  
Mean Temperature 42 °F -  
Max Temperature 55 °F 42 °F 64 °F (1976)
Min Temperature 28 °F 20 °F 1 °F (1971)
Degree Days  
Heating Degree Days 24    
Moisture  
Dew Point 22 °F    
Average Humidity 51    
Maximum Humidity 84    
Minimum Humidity 16    
Precipitation  
Precipitation 0.08 in - - ()
Sea Level Pressure  
Sea Level Pressure 30.25 in    
Wind  
Wind Speed 6 mph (East)    
Max Wind Speed 16 mph    
Max Gust Speed 20 mph    
Visibility 10 miles    
Events Rain    
Averages and records for this station are not official NWS values.
T = Trace of Precipitation, MM = Missing Value Source: NWS Daily Summary

Daily Weather History Graph

Daily Weather History Graph

Search for Another Location

Airport:

Trip Planner

Search our weather history database for the weather conditions in past years. The results will help you decide how hot, cold, wet, or windy it might be!

Date:

Astronomy

Feb. 10, 2013 Rise Set
Actual Time 7:19 AM EST 6:00 PM EST
Civil Twilight 6:52 AM EST 6:27 PM EST
Nautical Twilight 6:21 AM EST 6:58 PM EST
Astronomical Twilight 5:51 AM EST 7:28 PM EST
Moon 7:09 AM EST (2/10) 6:47 PM EST (2/10)
Length of Visible Light 11h 35m
Length of Day
10h 41m
New Moon, 0% of the Moon is Illuminated
Feb 10
New Moon
Feb 17
First Quarter
Feb 25
Full
Mar 4
Last Quarter
Mar 11
New

Hourly Weather History & Observations

Time (EST) Temp. Windchill Dew Point Humidity Pressure Visibility Wind Dir Wind Speed Gust Speed Precip Events Conditions
12:15 AM 29.1 °F 24.1 °F 21.9 °F 74% 30.30 in 10.0 mi East 4.6 mph - N/A   Clear
12:35 AM 29.7 °F 26.1 °F 21.7 °F 72% 30.30 in 10.0 mi East 3.5 mph - N/A   Clear
12:55 AM 29.3 °F 25.6 °F 21.7 °F 73% 30.30 in 10.0 mi East 3.5 mph - N/A   Clear
1:15 AM 28.2 °F 24.4 °F 21.7 °F 77% 30.30 in 10.0 mi East 3.5 mph - N/A   Clear
1:35 AM 28.4 °F 23.3 °F 21.6 °F 76% 30.29 in 10.0 mi East 4.6 mph - N/A   Clear
1:55 AM 28.9 °F 25.2 °F 21.2 °F 73% 30.29 in 10.0 mi SE 3.5 mph - N/A   Clear
2:15 AM 30.0 °F 26.5 °F 20.8 °F 69% 30.30 in 10.0 mi ESE 3.5 mph - N/A   Clear
2:35 AM 29.5 °F 24.5 °F 20.3 °F 69% 30.30 in 10.0 mi SE 4.6 mph - N/A   Clear
2:55 AM 30.4 °F 26.9 °F 19.9 °F 65% 30.30 in 10.0 mi ESE 3.5 mph - N/A   Clear
3:15 AM 30.7 °F 26.0 °F 20.1 °F 65% 30.30 in 10.0 mi ESE 4.6 mph - N/A   Clear
3:35 AM 30.0 °F 24.1 °F 20.5 °F 68% 30.29 in 10.0 mi East 5.8 mph - N/A   Clear
3:55 AM 30.4 °F 26.9 °F 20.3 °F 66% 30.29 in 10.0 mi ESE 3.5 mph - N/A   Clear
4:15 AM 30.7 °F 26.0 °F 20.5 °F 66% 30.29 in 10.0 mi East 4.6 mph - N/A   Clear
4:35 AM 31.1 °F 26.4 °F 20.7 °F 65% 30.30 in 10.0 mi East 4.6 mph - N/A   Clear
4:55 AM 32.0 °F 25.6 °F 20.3 °F 62% 30.30 in 10.0 mi East 6.9 mph - N/A   Clear
5:15 AM 32.4 °F 26.0 °F 19.9 °F 60% 30.30 in 10.0 mi East 6.9 mph - N/A   Clear
5:35 AM 32.9 °F 26.7 °F 19.4 °F 58% 30.30 in 10.0 mi East 6.9 mph - N/A   Clear
5:55 AM 33.1 °F 30.0 °F 19.4 °F 57% 30.30 in 10.0 mi ENE 3.5 mph - N/A   Clear
6:15 AM 33.3 °F 26.4 °F 19.2 °F 56% 30.31 in 10.0 mi ENE 8.1 mph - N/A   Clear
6:35 AM 33.8 °F 27.7 °F 19.4 °F 56% 30.32 in 10.0 mi ENE 6.9 mph - N/A   Clear
6:55 AM 34.0 °F 28.0 °F 19.4 °F 55% 30.33 in 10.0 mi East 6.9 mph - N/A   Scattered Clouds
7:15 AM 34.3 °F 29.2 °F 19.2 °F 54% 30.33 in 10.0 mi ENE 5.8 mph - N/A   Mostly Cloudy
7:35 AM 34.9 °F 29.9 °F 18.5 °F 51% 30.34 in 10.0 mi ENE 5.8 mph - N/A   Overcast
7:55 AM 34.7 °F 29.6 °F 19.4 °F 54% 30.35 in 10.0 mi East 5.8 mph - N/A   Overcast
8:15 AM 36.0 °F 28.0 °F 18.5 °F 49% 30.34 in 10.0 mi ENE 11.5 mph - N/A   Mostly Cloudy
8:35 AM 36.1 °F 29.3 °F 18.3 °F 48% 30.35 in 10.0 mi NE 9.2 mph - N/A   Mostly Cloudy
8:55 AM 36.5 °F 29.7 °F 18.7 °F 49% 30.34 in 10.0 mi NE 9.2 mph - N/A   Scattered Clouds
9:15 AM 39.0 °F 32.3 °F 19.6 °F 46% 30.33 in 10.0 mi NE 10.4 mph 17.3 mph N/A   Scattered Clouds
9:35 AM 39.9 °F 34.5 °F 19.6 °F 44% 30.35 in 10.0 mi ENE 8.1 mph - N/A   Scattered Clouds
10:15 AM 43.2 °F 37.9 °F 19.6 °F 39% 30.33 in 10.0 mi NE 9.2 mph - N/A   Clear
10:35 AM 45.3 °F 40.6 °F 20.7 °F 38% 30.32 in 10.0 mi NE 9.2 mph - N/A   Clear
10:55 AM 47.8 °F - 20.7 °F 34% 30.33 in 10.0 mi NE 9.2 mph - N/A   Clear
11:15 AM 50.2 °F - 16.3 °F 26% 30.32 in 10.0 mi East 8.1 mph - N/A   Clear
11:35 AM 51.1 °F - 16.5 °F 25% 30.31 in 10.0 mi East 9.2 mph - N/A   Clear
11:55 AM 51.8 °F - 15.4 °F 24% 30.29 in 10.0 mi East 10.4 mph - N/A   Clear
12:15 PM 53.2 °F - 14.0 °F 21% 30.28 in 10.0 mi ESE 8.1 mph - N/A   Clear
12:35 PM 54.0 °F - 15.4 °F 22% 30.25 in 10.0 mi ESE 10.4 mph - N/A   Clear
12:55 PM 53.6 °F - 13.6 °F 21% 30.24 in 10.0 mi ESE 12.7 mph 17.3 mph N/A   Clear
1:15 PM 54.1 °F - 14.2 °F 21% 30.24 in 10.0 mi SE 8.1 mph - N/A   Clear
1:35 PM 55.8 °F - 12.9 °F 18% 30.23 in 10.0 mi SE 11.5 mph 16.1 mph N/A   Clear
1:55 PM 55.2 °F - 8.6 °F 16% 30.22 in 10.0 mi SE 4.6 mph 17.3 mph N/A   Clear
2:15 PM 54.9 °F - 10.8 °F 17% 30.19 in 10.0 mi ESE 11.5 mph 16.1 mph N/A   Clear
2:35 PM 52.5 °F - 11.7 °F 20% 30.19 in 10.0 mi SE 6.9 mph 17.3 mph N/A   Clear
2:55 PM 54.1 °F - 10.6 °F 18% 30.20 in 10.0 mi SSE 6.9 mph - N/A   Clear
3:15 PM 53.8 °F - 10.9 °F 18% 30.21 in 10.0 mi SSW 10.4 mph 16.1 mph N/A   Clear
3:35 PM 51.8 °F - 10.2 °F 19% 30.20 in 10.0 mi SE 4.6 mph 17.3 mph N/A   Clear
3:55 PM 51.1 °F - 10.9 °F 20% 30.19 in 10.0 mi SSE 5.8 mph - N/A   Scattered Clouds
4:15 PM 49.8 °F - 15.8 °F 26% 30.19 in 10.0 mi ESE 9.2 mph - N/A   Scattered Clouds
4:35 PM 49.1 °F - 15.6 °F 26% 30.18 in 10.0 mi ESE 6.9 mph - N/A   Scattered Clouds
4:55 PM 48.6 °F - 16.2 °F 28% 30.17 in 10.0 mi East 10.4 mph 16.1 mph N/A   Overcast
5:15 PM 48.2 °F - 16.9 °F 29% 30.18 in 10.0 mi East 9.2 mph - N/A   Overcast
5:35 PM 48.0 °F - 16.5 °F 29% 30.19 in 10.0 mi South 6.9 mph - N/A   Mostly Cloudy
5:55 PM 48.2 °F - 19.8 °F 32% 30.20 in 10.0 mi SE 6.9 mph - N/A   Scattered Clouds
6:15 PM 47.8 °F - 21.6 °F 35% 30.20 in 10.0 mi SE 8.1 mph - N/A   Clear
6:35 PM 48.0 °F - 21.9 °F 36% 30.22 in 10.0 mi South 3.5 mph - N/A   Scattered Clouds
6:55 PM 47.5 °F - 24.3 °F 40% 30.23 in 10.0 mi SSW 8.1 mph - N/A Rain Rain
7:15 PM 44.8 °F 41.0 °F 29.1 °F 54% 30.23 in 10.0 mi SSW 6.9 mph - 0.01 in Rain Rain
7:35 PM 42.8 °F - 32.9 °F 68% 30.23 in 10.0 mi Calm Calm - 0.03 in Rain Light Rain
7:55 PM 40.8 °F 34.5 °F 34.9 °F 79% 30.21 in 10.0 mi ESE 10.4 mph - 0.06 in Rain Light Rain
8:15 PM 40.3 °F 33.9 °F 35.1 °F 82% 30.20 in 10.0 mi East 10.4 mph - 0.01 in Rain Light Rain
8:35 PM 40.1 °F 32.4 °F 34.9 °F 82% 30.16 in 10.0 mi ENE 13.8 mph 19.6 mph 0.02 in Rain Light Rain
8:55 PM 40.3 °F 31.9 °F 34.7 °F 80% 30.17 in 10.0 mi NNE 16.1 mph - 0.02 in   Overcast
9:15 PM 41.0 °F 33.1 °F 35.1 °F 79% 30.15 in 10.0 mi NE 15.0 mph 18.4 mph N/A   Overcast
9:35 PM 41.5 °F 35.9 °F 35.2 °F 78% 30.16 in 10.0 mi North 9.2 mph - N/A   Overcast
9:55 PM 42.4 °F 37.0 °F 36.1 °F 78% 30.16 in 10.0 mi NE 9.2 mph - N/A   Overcast
10:15 PM 42.8 °F 37.5 °F 36.9 °F 80% 30.15 in 10.0 mi ENE 9.2 mph 17.3 mph N/A   Overcast
10:35 PM 43.0 °F 37.7 °F 36.7 °F 78% 30.15 in 10.0 mi ENE 9.2 mph - N/A   Overcast
10:55 PM 43.2 °F 37.9 °F 37.8 °F 81% 30.14 in 10.0 mi East 9.2 mph - N/A   Overcast
11:15 PM 43.5 °F 37.9 °F 38.3 °F 82% 30.13 in 10.0 mi ENE 10.4 mph - N/A   Overcast
11:35 PM 43.7 °F 39.1 °F 39.0 °F 84% 30.11 in 10.0 mi ENE 8.1 mph - N/A   Overcast
11:55 PM 45.0 °F 40.6 °F 39.9 °F 82% 30.09 in 10.0 mi NNE 8.1 mph - N/A   Overcast